Location: Newark
(44.1667°N, 8.2500°E)
Time: 14:52:36
(UTC+00:00)

Explorer 11/Cluster Stage 4 - Pass Details

Date: 22 December 2019
Orbit: 467 x 1259 km, 28.8° (Epoch: 21 January)

Event Time Altitude Azimuth Distance (km) Brightness Sun altitude
Exits shadow 04:55:35 - 222° (SW) 3,538 9.6 -21.2°
Reaches altitude 10° 04:57:24 10° 213° (SSW) 3,097 9.4 -20.9°
Maximum altitude 05:03:09 22° 166° (SSE) 2,399 9.3 -19.9°
Drops below altitude 10° 05:09:06 10° 120° (ESE) 3,230 10.8 -18.9°
Sets 05:12:44 0° 107° (ESE) 4,173 12.0 -18.3°
